Location: McNierney
(34.1937°N, 106.9061°W)
Time: 07:26:04
(UTC+00:00)

Cosmos 2322 Rocket - Pass Details

Date: 11 December 2025
Orbit: 831 x 851 km, 71.0° (Epoch: 13 January)

Event Time Altitude Azimuth Distance (km) Brightness Sun altitude
Exits shadow 12:47:06 - 344° (NNW) 3,065 4.8 -15.4°
Reaches altitude 10° 12:48:40 10° 346° (NNW) 2,477 4.3 -15.1°
Maximum altitude 12:54:18 62° 67° (ENE) 948 2.7 -14.0°
Drops below altitude 10° 12:59:52 10° 148° (SSE) 2,451 5.4 -12.9°
Sets 13:02:19 0° 152° (SSE) 3,380 6.1 -12.5°
